GW1639 Weather Reports


Display with metric or nautical units.
time (UTC)temp
F
wind
direction
speed
MPH
gust
MPH
rain 1hr
in
rain 24hr
in
rain mn
in
humidity
%
barometer
mb
20240715002604 76 136 0.0 0.0 0.00 0.00 0.00 99 1057.5
20240715002102 76 139 0.0 0.0 0.00 0.00 0.00 99 1057.3
20240715001601 76 141 0.0 0.0 0.00 0.00 0.00 99 1057.3
20240715001100 76 133 0.0 0.0 0.00 0.00 0.00 99 1057.2
20240715000559 76 134 0.0 0.0 0.00 0.00 0.00 99 1057.3
20240715000057 75 136 0.0 0.0 0.00 0.00 0.00 99 1057.2
20240714235553 76 138 0.0 0.0 0.00 0.00 0.00 99 1057.3
20240714235053 76 134 0.0 0.0 0.00 0.00 0.00 99 1057.1
20240714234552 75 136 0.0 0.0 0.00 0.00 0.00 99 1057.2
20240714234051 75 134 0.0 0.0 0.00 0.00 0.00 99 1057.2
20240714233551 75 131 0.0 0.0 0.00 0.00 0.00 99 1056.9
20240714233051 75 129 0.0 0.0 0.00 0.00 0.00 99 1057.0
20240714232550 75 129 0.0 0.0 0.00 0.00 0.00 99 1057.2
20240714232049 75 129 0.0 0.0 0.00 0.00 0.00 99 1057.1
20240714231548 75 129 0.0 0.0 0.00 0.00 0.00 99 1057.0
20240714231048 75 124 0.0 0.0 0.00 0.00 0.00 99 1056.8
20240714230546 75 122 0.0 0.0 0.00 0.00 0.00 99 1056.8
20240714230044 75 140 0.0 0.0 0.00 0.00 0.00 99 1056.7
20240714225543 75 127 0.0 0.0 0.00 0.00 0.00 99 1056.5
20240714225041 75 129 0.0 0.0 0.00 0.00 0.00 99 1056.1
20240714224541 74 129 0.0 0.0 0.00 0.00 0.00 99 1055.9
20240714224041 74 131 0.0 0.0 0.00 0.00 0.00 99 1056.1
20240714223538 74 133 0.0 0.0 0.00 0.00 0.00 99 1056.0
20240714223037 74 134 0.0 0.0 0.00 0.00 0.00 99 1056.0
20240714222536 74 127 0.0 0.0 0.00 0.00 0.00 99 1056.2
20240714222035 75 127 0.0 0.0 0.00 0.00 0.00 99 1055.9
20240714221535 75 127 0.0 0.0 0.00 0.00 0.00 99 1055.9
20240714221033 75 132 0.0 0.0 0.00 0.00 0.00 99 1055.9
20240714220532 75 132 0.0 0.0 0.00 0.00 0.00 99 1056.0
20240714220032 75 124 0.0 0.0 0.00 0.00 0.00 99 1056.0
20240714215529 75 128 0.0 0.0 0.00 0.00 0.00 99 1056.1
20240714215028 75 136 0.0 0.0 0.00 0.00 0.00 99 1056.1
20240714214525 75 133 0.0 0.0 0.00 0.00 0.00 99 1056.3
20240714214023 75 126 0.0 1.0 0.00 0.00 0.00 99 1056.3
20240714213523 75 121 0.0 0.0 0.00 0.00 0.00 99 1056.3
20240714213023 75 144 0.0 0.0 0.00 0.00 0.00 99 1056.1
20240714212521 75 130 0.0 0.0 0.00 0.00 0.00 99 1056.1
20240714212021 75 123 0.0 0.0 0.00 0.00 0.00 99 1056.0
20240714211519 75 131 0.0 0.0 0.00 0.00 0.00 99 1056.1
20240714211018 75 129 0.0 0.0 0.00 0.00 0.00 99 1055.8
20240714210518 75 129 0.0 0.0 0.00 0.00 0.00 99 1055.8
20240714210017 75 128 0.0 0.0 0.00 0.00 0.00 99 1055.9
20240714205513 75 122 0.0 0.0 0.00 0.00 0.00 99 1055.7
20240714205013 75 128 0.0 0.0 0.00 0.00 0.00 99 1055.8
20240714204512 75 127 0.0 0.0 0.00 0.00 0.00 99 1055.7
20240714204010 75 128 0.0 0.0 0.00 0.00 0.00 99 1055.9
20240714203509 75 128 0.0 0.0 0.00 0.00 0.00 99 1055.8
20240714203008 75 123 0.0 0.0 0.00 0.00 0.00 99 1055.8
20240714202505 75 121 0.0 0.0 0.00 0.00 0.00 99 1055.9
20240714202003 75 125 0.0 0.0 0.00 0.00 0.00 99 1056.0
20240714201502 75 128 0.0 0.0 0.00 0.00 0.00 99 1055.8
20240714200959 75 126 0.0 0.0 0.00 0.00 0.00 99 1056.1
20240714200458 75 140 0.0 0.0 0.00 0.00 0.00 99 1056.0
20240714195957 75 129 0.0 1.0 0.00 0.00 0.00 99 1055.9
20240714195456 75 128 0.0 1.0 0.00 0.00 0.00 99 1056.0
20240714194955 75 111 0.0 0.0 0.00 0.00 0.00 99 1056.0
20240714194453 75 131 0.0 0.0 0.00 0.00 0.00 99 1055.8
20240714193952 75 131 0.0 0.0 0.00 0.00 0.00 99 1055.9
20240714193451 75 128 0.0 1.0 0.00 0.00 0.00 99 1055.7
20240714192949 74 121 0.0 0.0 0.00 0.00 0.00 99 1055.7
20240714192448 74 129 0.0 0.0 0.00 0.00 0.00 99 1055.9
20240714191947 74 130 0.0 0.0 0.00 0.00 0.00 99 1055.9
20240714191446 74 129 0.0 0.0 0.00 0.00 0.00 99 1055.9
20240714190944 74 121 0.0 0.0 0.00 0.00 0.00 99 1055.9
20240714190443 74 129 0.0 0.0 0.00 0.00 0.00 99 1055.8
20240714185943 74 128 0.0 0.0 0.00 0.00 0.00 99 1056.1
20240714185439 74 129 0.0 0.0 0.00 0.00 0.00 99 1056.0
20240714184938 74 131 0.0 0.0 0.00 0.00 0.00 99 1056.0
20240714184436 74 129 0.0 0.0 0.00 0.00 0.00 99 1055.7
20240714183935 74 136 0.0 0.0 0.00 0.00 0.00 99 1055.8
20240714183433 74 129 0.0 0.0 0.00 0.00 0.00 99 1055.9
20240714182932 74 129 0.0 0.0 0.00 0.00 0.00 99 1055.9
20240714182432 74 128 0.0 0.0 0.00 0.00 0.00 99 1056.0
20240714181930 74 129 0.0 2.0 0.00 0.00 0.00 99 1055.9
20240714181430 74 129 0.0 0.0 0.00 0.00 0.00 99 1056.1
20240714180928 74 132 0.0 0.0 0.00 0.00 0.00 99 1056.0
20240714180426 74 130 0.0 0.0 0.00 0.00 0.00 99 1056.3
20240714175926 74 132 0.0 0.0 0.00 0.00 0.00 99 1056.0
20240714175422 74 134 0.0 0.0 0.00 0.00 0.00 99 1056.2
20240714174922 74 131 0.0 1.0 0.00 0.00 0.00 99 1056.0
20240714174420 74 69 3.0 3.0 0.00 0.00 0.00 99 1056.1
20240714173918 74 119 0.0 0.0 0.00 0.00 0.00 99 1056.1
20240714173418 74 109 0.0 0.0 0.00 0.00 0.00 99 1056.1
20240714172918 74 131 0.0 0.0 0.00 0.00 0.00 99 1056.5
20240714172417 74 133 0.0 0.0 0.00 0.00 0.00 99 1056.1
20240714171916 74 142 0.0 0.0 0.00 0.00 0.00 99 1056.3
20240714171415 74 134 0.0 0.0 0.00 0.00 0.00 99 1056.3
20240714170915 74 132 0.0 0.0 0.00 0.00 0.00 99 1056.0
20240714170414 74 112 0.0 1.0 0.00 0.00 0.00 99 1056.0
20240714165912 75 137 0.0 0.0 0.00 0.09 0.09 99 1056.3
20240714165409 75 144 0.0 0.0 0.00 0.09 0.09 99 1056.3
20240714164908 75 140 0.0 0.0 0.00 0.09 0.09 99 1056.3
20240714164407 75 138 0.0 0.0 0.00 0.09 0.09 99 1056.5
20240714163905 75 139 0.0 0.0 0.00 0.09 0.09 99 1056.6
20240714163404 75 135 0.0 0.0 0.00 0.09 0.09 99 1056.7
20240714162903 76 184 0.0 1.0 0.00 0.09 0.09 99 1056.6
20240714162400 76 143 0.0 0.0 0.00 0.09 0.09 99 1056.6
20240714161900 76 138 0.0 0.0 0.07 0.09 0.09 99 1056.5
20240714161358 76 146 0.0 0.0 0.00 0.07 0.07 99 1056.6
20240714160858 76 130 0.0 2.0 0.00 0.07 0.07 99 1056.8
20240714160357 76 117 0.0 0.0 0.00 0.07 0.07 99 1056.8
20240714155856 76 119 0.0 1.0 0.00 0.07 0.07 99 1056.7
20240714155355 76 124 0.0 0.0 0.00 0.07 0.07 99 1056.6
20240714154855 76 116 0.0 0.0 0.00 0.07 0.07 99 1056.6
20240714154354 76 118 0.0 0.0 0.00 0.07 0.07 99 1056.2
20240714153853 76 84 0.0 1.0 0.00 0.07 0.07 99 1056.3
20240714153352 77 148 1.0 2.0 0.00 0.07 0.07 99 1056.2
20240714152852 77 131 0.0 0.0 0.00 0.07 0.07 99 1056.3
20240714152351 77 132 0.0 0.0 0.00 0.07 0.07 99 1056.5
20240714151851 77 131 0.0 0.0 0.00 0.07 0.07 99 1056.5
20240714151349 77 131 0.0 1.0 0.04 0.07 0.07 99 1056.2
20240714150848 77 134 0.0 0.0 0.04 0.07 0.07 99 1056.2
20240714150346 78 115 0.0 0.0 0.07 0.07 0.07 99 1056.0
20240714145844 78 130 0.0 1.0 0.30 0.07 0.07 98 1056.2
20240714145341 78 138 0.0 5.0 0.30 0.05 0.05 97 1056.0
20240714144840 80 70 7.0 11.0 0.07 0.01 0.01 93 1056.0
20240714144338 80 188 2.0 3.0 0.00 0.00 0.00 93 1055.8
20240714143836 78 178 2.0 2.0 0.00 0.00 0.00 99 1055.3
20240714143334 79 151 1.0 2.0 0.00 0.00 0.00 99 1055.3
20240714142834 79 131 0.0 0.0 0.00 0.00 0.00 99 1055.0
20240714142332 79 131 0.0 0.0 0.00 0.00 0.00 99 1055.1
20240714141830 79 131 0.0 0.0 0.00 0.00 0.00 99 1054.8
20240714141328 79 135 0.0 0.0 0.00 0.00 0.00 99 1054.9
20240714140828 79 132 0.0 0.0 0.00 0.00 0.00 99 1054.8
20240714140328 79 132 0.0 0.0 0.00 0.00 0.00 99 1054.7
20240714135827 79 130 0.0 0.0 0.00 0.00 0.00 99 1054.7
20240714135325 79 129 0.0 0.0 0.00 0.00 0.00 98 1054.9
20240714134824 79 130 0.0 0.0 0.00 0.00 0.00 98 1054.7
20240714134322 79 130 0.0 0.0 0.00 0.00 0.00 98 1054.7
20240714133822 79 128 0.0 0.0 0.00 0.00 0.00 98 1054.7
20240714133320 79 120 0.0 0.0 0.00 0.00 0.00 98 1054.6
20240714132819 79 132 0.0 0.0 0.00 0.00 0.00 98 1054.4
20240714132317 79 130 0.0 0.0 0.00 0.00 0.00 98 1054.5
20240714131817 79 121 0.0 0.0 0.00 0.00 0.00 98 1054.4
20240714131315 80 134 0.0 0.0 0.00 0.00 0.00 98 1054.4
20240714130814 80 131 0.0 0.0 0.00 0.00 0.00 97 1054.5
20240714130312 80 128 0.0 0.0 0.00 0.00 0.00 97 1054.2
20240714125812 80 127 0.0 0.0 0.00 0.00 0.00 97 1054.1
20240714125311 80 130 0.0 0.0 0.00 0.00 0.00 96 1053.8
20240714124811 81 130 0.0 0.0 0.00 0.00 0.00 96 1054.0
20240714124309 81 133 0.0 0.0 0.00 0.00 0.00 95 1053.7
20240714123808 81 131 0.0 0.0 0.00 0.00 0.00 95 1053.8
20240714123306 81 133 0.0 0.0 0.00 0.00 0.00 95 1054.0
20240714122806 81 133 0.0 0.0 0.00 0.00 0.00 94 1053.6
20240714122306 81 127 0.0 0.0 0.00 0.00 0.00 94 1053.5
20240714121803 82 128 0.0 0.0 0.00 0.00 0.00 93 1053.2
20240714121259 82 123 0.0 0.0 0.00 0.00 0.00 92 1053.1
20240714120759 82 128 0.0 0.0 0.00 0.00 0.00 91 1053.2
20240714120257 83 133 0.0 0.0 0.00 0.00 0.00 89 1052.8
20240714115757 83 133 0.0 0.0 0.00 0.00 0.00 89 1052.6
20240714115256 83 131 0.0 0.0 0.00 0.00 0.00 89 1052.8
20240714114755 83 118 0.0 0.0 0.00 0.00 0.00 90 1053.0
20240714114254 84 118 0.0 0.0 0.00 0.00 0.00 90 1052.5
20240714113753 84 113 0.0 0.0 0.00 0.00 0.00 89 1052.5
20240714113248 85 136 0.0 0.0 0.00 0.00 0.00 86 1052.5
20240714112747 86 134 0.0 0.0 0.00 0.00 0.00 85 1052.3
20240714112245 86 140 0.0 0.0 0.00 0.00 0.00 83 1052.3
20240714111745 86 136 0.0 0.0 0.00 0.00 0.00 83 1052.3
20240714111244 86 126 0.0 0.0 0.00 0.00 0.00 82 1052.3
20240714110744 86 137 0.0 0.0 0.00 0.00 0.00 81 1052.2
20240714110242 86 122 0.0 0.0 0.00 0.00 0.00 81 1052.2
20240714105741 86 129 0.0 0.0 0.00 0.00 0.00 79 1052.1
20240714105241 87 132 0.0 1.0 0.00 0.00 0.00 78 1051.7
20240714104740 87 153 0.0 1.0 0.00 0.00 0.00 77 1051.7
20240714104239 87 152 1.0 2.0 0.00 0.00 0.00 76 1052.1
20240714103737 88 177 1.0 2.0 0.00 0.00 0.00 76 1051.7
20240714103236 88 182 1.0 2.0 0.00 0.00 0.00 77 1051.8
20240714102734 89 197 4.0 5.0 0.00 0.00 0.00 75 1051.7
20240714102233 89 156 1.0 2.0 0.00 0.00 0.00 77 1051.8
20240714101732 89 168 3.0 3.0 0.00 0.00 0.00 74 1051.9
20240714101230 89 117 1.0 1.0 0.00 0.00 0.00 74 1051.3
20240714100729 89 170 1.0 2.0 0.00 0.00 0.00 74 1051.6
20240714100229 89 125 1.0 3.0 0.00 0.00 0.00 74 1051.8
20240714095728 89 154 1.0 3.0 0.00 0.00 0.00 75 1051.6
20240714095227 90 182 3.0 5.0 0.00 0.00 0.00 73 1051.6
20240714094726 90 195 3.0 3.0 0.00 0.00 0.00 75 1051.5
20240714094226 90 152 0.0 1.0 0.00 0.00 0.00 75 1051.5
20240714093724 91 159 1.0 1.0 0.00 0.00 0.00 75 1051.5
20240714093222 91 165 3.0 3.0 0.00 0.00 0.00 74 1051.3
20240714092721 91 184 2.0 2.0 0.00 0.00 0.00 73 1051.6
20240714092219 91 128 2.0 2.0 0.00 0.00 0.00 72 1051.5
20240714091719 90 154 1.0 1.0 0.00 0.00 0.00 74 1051.5
20240714091217 90 170 2.0 5.0 0.00 0.00 0.00 78 1051.3
20240714090717 91 156 1.0 2.0 0.00 0.00 0.00 75 1051.6
20240714090215 90 142 0.0 0.0 0.00 0.00 0.00 72 1051.5
20240714085713 89 167 1.0 2.0 0.00 0.00 0.00 77 1051.9
20240714085211 91 176 1.0 3.0 0.00 0.00 0.00 71 1051.9
20240714084710 90 166 1.0 3.0 0.00 0.00 0.00 75 1051.8
20240714084207 91 210 1.0 2.0 0.00 0.00 0.00 75 1052.1
20240714083705 90 157 2.0 3.0 0.00 0.00 0.00 73 1051.8
20240714083201 90 169 1.0 5.0 0.00 0.00 0.00 73 1052.0
20240714082700 90 166 2.0 2.0 0.00 0.00 0.00 78 1051.8
20240714082158 90 197 3.0 3.0 0.00 0.00 0.00 75 1052.1
20240714081656 91 139 0.0 1.0 0.00 0.00 0.00 72 1052.2
20240714081154 91 133 3.0 3.0 0.00 0.00 0.00 74 1052.1
20240714080652 91 193 2.0 3.0 0.00 0.00 0.00 74 1052.3
20240714080150 90 146 0.0 2.0 0.00 0.00 0.00 77 1052.3
20240714075648 91 126 1.0 2.0 0.00 0.00 0.00 72 1052.6
20240714075147 90 138 2.0 2.0 0.00 0.00 0.00 79 1052.6
20240714074646 90 109 1.0 2.0 0.00 0.00 0.00 73 1052.8
20240714074144 89 197 3.0 3.0 0.00 0.00 0.00 77 1052.5
20240714073644 88 174 2.0 2.0 0.00 0.00 0.00 80 1052.5
20240714073143 89 132 2.0 2.0 0.00 0.00 0.00 76 1052.7
20240714072642 89 148 3.0 3.0 0.00 0.00 0.00 77 1052.7
20240714072140 89 152 0.0 3.0 0.00 0.00 0.00 80 1052.6
20240714071638 89 135 0.0 3.0 0.00 0.00 0.00 79 1052.7
20240714071137 90 136 1.0 2.0 0.00 0.00 0.00 76 1052.9
20240714070636 89 163 2.0 5.0 0.00 0.00 0.00 78 1052.9
20240714070136 89 171 1.0 3.0 0.00 0.00 0.00 80 1053.1
20240714065635 89 201 4.0 6.0 0.00 0.00 0.00 79 1053.0
20240714065133 88 181 3.0 5.0 0.00 0.00 0.00 77 1053.2
20240714064633 88 187 4.0 5.0 0.00 0.00 0.00 78 1053.3
20240714064132 89 202 3.0 5.0 0.00 0.00 0.00 77 1053.5
20240714063630 89 144 1.0 3.0 0.00 0.00 0.00 77 1053.0
20240714063128 88 172 4.0 6.0 0.00 0.00 0.00 77 1053.3
20240714062628 87 174 0.0 2.0 0.00 0.00 0.00 80 1053.3
20240714062127 87 149 4.0 7.0 0.00 0.00 0.00 78 1053.5
20240714061627 89 156 1.0 3.0 0.00 0.00 0.00 77 1053.5
20240714061128 88 122 1.0 2.0 0.00 0.00 0.00 75 1053.7
20240714060626 89 194 0.0 2.0 0.00 0.00 0.00 75 1053.8
20240714060126 90 205 2.0 3.0 0.00 0.00 0.00 74 1053.7
20240714055623 89 151 3.0 3.0 0.00 0.00 0.00 79 1053.7
20240714055122 89 202 2.0 5.0 0.00 0.00 0.00 79 1053.7
20240714054623 89 164 2.0 3.0 0.00 0.00 0.00 76 1054.0
20240714054120 89 108 1.0 2.0 0.00 0.00 0.00 79 1054.2
20240714053618 89 189 2.0 3.0 0.00 0.00 0.00 79 1054.2
20240714053118 89 189 3.0 3.0 0.00 0.00 0.00 81 1054.4
20240714052615 87 144 2.0 5.0 0.00 0.00 0.00 82 1054.3
20240714052113 86 142 3.0 3.0 0.00 0.00 0.00 83 1054.4
20240714051613 87 176 3.0 3.0 0.00 0.00 0.00 82 1054.4
20240714051110 88 157 3.0 5.0 0.00 0.00 0.00 78 1054.5
20240714050610 87 209 3.0 7.0 0.00 0.00 0.00 83 1054.5
20240714050109 86 165 1.0 2.0 0.00 0.00 0.00 79 1054.5
20240714045606 86 182 2.0 5.0 0.00 0.00 0.00 82 1054.7
20240714045105 87 192 3.0 5.0 0.00 0.00 0.00 80 1054.8
20240714044604 87 182 3.0 3.0 0.00 0.00 0.00 81 1054.7
20240714044102 87 171 1.0 5.0 0.00 0.00 0.00 82 1055.0
20240714043601 86 170 1.0 5.0 0.00 0.00 0.00 83 1055.0
20240714043101 87 210 5.0 6.0 0.00 0.00 0.00 79 1055.2
20240714042601 87 154 1.0 5.0 0.00 0.00 0.00 82 1055.2
20240714042059 86 171 1.0 1.0 0.00 0.00 0.00 83 1055.2
20240714041559 86 226 2.0 5.0 0.00 0.00 0.00 81 1055.5
20240714041058 86 179 3.0 5.0 0.00 0.00 0.00 83 1055.5
20240714040557 85 179 1.0 3.0 0.00 0.00 0.00 82 1055.6
20240714040055 85 145 2.0 3.0 0.00 0.00 0.00 83 1055.5
20240714035553 85 165 2.0 5.0 0.00 0.00 0.00 84 1055.7
20240714035052 85 132 2.0 2.0 0.00 0.00 0.00 84 1055.8
20240714034550 85 166 0.0 2.0 0.00 0.00 0.00 86 1055.4
20240714034050 85 133 1.0 2.0 0.00 0.00 0.00 85 1055.7
20240714033548 85 140 1.0 1.0 0.00 0.00 0.00 84 1055.7
20240714033047 85 173 4.0 5.0 0.00 0.00 0.00 86 1055.7
20240714032546 84 208 3.0 5.0 0.00 0.00 0.00 86 1055.7
20240714032044 84 150 1.0 3.0 0.00 0.00 0.00 85 1056.0
20240714031543 85 168 1.0 2.0 0.00 0.00 0.00 87 1055.7
20240714031043 84 167 2.0 3.0 0.00 0.00 0.00 86 1055.9
20240714030541 83 134 2.0 3.0 0.00 0.00 0.00 88 1055.6
20240714030039 83 173 2.0 3.0 0.00 0.00 0.00 88 1055.8
20240714025537 83 191 4.0 6.0 0.00 0.00 0.00 88 1055.9
20240714025034 82 146 2.0 5.0 0.00 0.00 0.00 90 1055.8
20240714024534 82 186 2.0 3.0 0.00 0.00 0.00 91 1056.0
20240714024034 81 138 1.0 3.0 0.00 0.00 0.00 92 1056.0
20240714023531 81 165 1.0 2.0 0.00 0.00 0.00 92 1056.0
20240714023030 81 135 0.0 1.0 0.00 0.00 0.00 91 1055.9
20240714022528 81 107 2.0 2.0 0.00 0.00 0.00 91 1055.9
20240714022027 81 166 2.0 2.0 0.00 0.00 0.00 91 1055.7
20240714021526 81 159 2.0 3.0 0.00 0.00 0.00 91 1055.8
20240714021025 81 124 1.0 2.0 0.00 0.00 0.00 92 1055.7
20240714020525 81 152 2.0 2.0 0.00 0.00 0.00 93 1055.7
20240714020024 81 156 0.0 2.0 0.00 0.00 0.00 94 1055.6
20240714015519 80 148 0.0 2.0 0.00 0.00 0.00 94 1055.7
20240714015019 80 143 0.0 2.0 0.00 0.00 0.00 95 1055.9
20240714014518 80 151 0.0 0.0 0.00 0.00 0.00 95 1055.7
20240714014018 79 82 1.0 5.0 0.00 0.00 0.00 94 1055.7
20240714013517 80 139 0.0 2.0 0.00 0.00 0.00 95 1055.6
20240714013016 80 138 0.0 1.0 0.00 0.00 0.00 95 1055.6
20240714012515 80 173 0.0 1.0 0.00 0.00 0.00 96 1055.4
20240714012013 79 142 0.0 0.0 0.00 0.00 0.00 96 1055.4
20240714011510 79 149 0.0 0.0 0.00 0.00 0.00 96 1055.3
20240714011008 79 126 0.0 0.0 0.00 0.00 0.00 97 1055.4
20240714010506 79 154 0.0 0.0 0.00 0.00 0.00 98 1055.5
20240714010004 78 184 0.0 0.0 0.00 0.00 0.00 99 1055.4
20240714005501 78 152 0.0 0.0 0.00 0.00 0.00 99 1055.0
20240714005000 78 147 0.0 0.0 0.00 0.00 0.00 99 1054.9
20240714004459 78 139 0.0 0.0 0.00 0.00 0.00 99 1055.2
20240714003957 78 142 0.0 0.0 0.00 0.00 0.00 99 1055.0
20240714003455 77 146 0.0 0.0 0.00 0.00 0.00 99 1055.2
20240714002955 78 142 0.0 0.0 0.00 0.00 0.00 99 1055.0